Tracking 29892 objects as of 21-Nov-2024
HD Live streaming from Space Station
objects crossing your sky now

STARLINK-6330

Track STARLINK-6330 now!
10-day predictions
STARLINK-6330 is classified as:


NORAD ID: 57239
Int'l Code: 2023-094X
Perigee: 565.2 km
Apogee: 567.2 km
Inclination: 43.0 °
Period: 95.8 minutes
Semi major axis: 6937 km
RCS: Unknown
Launch date: July 7, 2023
Source: United States (US)
Launch site: AIR FORCE WESTERN TEST RANGE (AFWTR)
Your satellite tracking list
Your tracking list is empty




NASA's NSSDC Master Catalog

Two Line Element Set (TLE):
1 57239U 23094X   24325.76116753 -.00000167  00000-0  26934-5 0  9990
2 57239  43.0039  85.1049 0001447 262.8457  97.2221 15.02534861 75835
Source of the keplerian elements: AFSPC